Weather History for Grand Prairie, TX

Change the Weather History Date:

Friday, August 30, 2013

  Actual Average (KDFW) Record (KDFW)
Temperature  
Mean Temperature 89 °F 84 °F  
Max Temperature 100 °F 94 °F 106 °F (2000)
Min Temperature 78 °F 73 °F 59 °F (1915)
Degree Days  
Heating Degree Days 0 0  
Month to date heating degree days 0  
Since 1 June heating degree days 0  
Since 1 July heating degree days 0  
Cooling Degree Days 24 19  
Month to date cooling degree days 615  
Year to date cooling degree days 2159  
Since 1 June cooling degree days 1737  
Growing Degree Days 39 (Base 50)    
Moisture  
Dew Point 60 °F    
Average Humidity 41    
Maximum Humidity 58    
Minimum Humidity 22    
Precipitation  
Precipitation 0.00 in 0.08 in 1.35 in (1991)
Month to date precipitation 1.82  
Year to date precipitation 24.02  
Sea Level Pressure  
Sea Level Pressure 29.97 in    
Wind  
Wind Speed 3 mph (SSE)    
Max Wind Speed 8 mph    
Max Gust Speed -    
Visibility 10 miles    
Events      
T = Trace of Precipitation, MM = Missing Value Source: NWS Daily Summary

Daily Weather History Graph

Daily Weather History Graph

Search for Another Location

Airport:

Trip Planner

Search our weather history database for the weather conditions in past years. The results will help you decide how hot, cold, wet, or windy it might be!

Date:

Astronomy

Aug. 30, 2013 Rise Set
Actual Time 7:01 AM CDT 7:55 PM CDT
Civil Twilight 6:36 AM CDT 8:20 PM CDT
Nautical Twilight 6:06 AM CDT 8:49 PM CDT
Astronomical Twilight 5:36 AM CDT 9:20 PM CDT
Moon 1:51 AM CDT (8/30) 4:02 PM CDT (8/30)
Length of Visible Light 13h 43m
Length of Day
12h 53m
Waning Crescent, 29% of the Moon is Illuminated
Aug 30
Waning Crescent
Sep 5
New
Sep 12
First Quarter
Sep 19
Full
Sep 26
Last Quarter

Hourly Weather History & Observations

Time (CDT) Temp. Heat Index Dew Point Humidity Pressure Visibility Wind Dir Wind Speed Gust Speed Precip Events Conditions
12:15 AM 87.8 °F 87.1 °F 59.0 °F 38% 30.00 in 10.0 mi Calm Calm - N/A   Clear
12:35 AM 87.8 °F 87.1 °F 59.0 °F 38% 29.99 in 10.0 mi Calm Calm - N/A   Clear
12:55 AM 86.0 °F 85.4 °F 59.0 °F 40% 30.00 in 10.0 mi SSE 3.5 mph - N/A   Clear
1:15 AM 86.0 °F 85.4 °F 59.0 °F 40% 30.00 in 10.0 mi SSE 3.5 mph - N/A   Clear
1:35 AM 86.0 °F 86.1 °F 60.8 °F 43% 29.99 in 10.0 mi Calm Calm - N/A   Clear
1:55 AM 86.0 °F 86.1 °F 60.8 °F 43% 29.99 in 10.0 mi SSW 3.5 mph - N/A   Clear
2:15 AM 86.0 °F 86.1 °F 60.8 °F 43% 29.99 in 10.0 mi Calm Calm - N/A   Clear
2:35 AM 84.2 °F 84.4 °F 60.8 °F 45% 29.99 in 10.0 mi SW 3.5 mph - N/A   Clear
2:55 AM 80.6 °F 81.5 °F 60.8 °F 51% 29.99 in 10.0 mi SSE 3.5 mph - N/A   Clear
3:15 AM 80.6 °F 81.5 °F 60.8 °F 51% 29.99 in 10.0 mi SE 3.5 mph - N/A   Clear
3:35 AM 80.6 °F 81.5 °F 60.8 °F 51% 29.99 in 10.0 mi SE 3.5 mph - N/A   Clear
3:55 AM 80.6 °F 81.8 °F 62.6 °F 54% 29.99 in 10.0 mi SSE 4.6 mph - N/A   Clear
4:15 AM 80.6 °F 81.8 °F 62.6 °F 54% 29.99 in 10.0 mi SSE 5.8 mph - N/A   Clear
4:35 AM 80.6 °F 81.5 °F 60.8 °F 51% 29.99 in 10.0 mi SSE 6.9 mph - N/A   Clear
4:55 AM 80.6 °F 81.5 °F 60.8 °F 51% 29.99 in 10.0 mi SSE 4.6 mph - N/A   Clear
5:15 AM 80.6 °F 81.8 °F 62.6 °F 54% 29.99 in 10.0 mi SSE 4.6 mph - N/A   Clear
5:35 AM 80.6 °F 81.8 °F 62.6 °F 54% 30.00 in 10.0 mi Calm Calm - N/A   Clear
5:55 AM 80.6 °F 81.8 °F 62.6 °F 54% 30.00 in 10.0 mi South 4.6 mph - N/A   Clear
6:15 AM 80.6 °F 81.8 °F 62.6 °F 54% 30.00 in 10.0 mi Calm Calm - N/A   Clear
6:35 AM 80.6 °F 81.8 °F 62.6 °F 54% 30.00 in 10.0 mi Calm Calm - N/A   Clear
6:50 AM 80.6 °F 82.3 °F 64.4 °F 58% 30.01 in 10.0 mi South 6.9 mph - N/A   Clear
6:55 AM 78.8 °F - 62.6 °F 57% 30.01 in 10.0 mi South 3.5 mph - N/A   Clear
7:50 AM 80.6 °F 82.3 °F 64.4 °F 58% 30.02 in 10.0 mi Calm Calm - N/A   Clear
8:50 AM 82.4 °F 83.9 °F 64.4 °F 54% 30.04 in 10.0 mi ESE 4.6 mph - N/A   Clear
9:50 AM 87.8 °F 89.4 °F 64.4 °F 46% 30.04 in 10.0 mi SSW 6.9 mph - N/A   Clear
10:50 AM 91.4 °F 92.1 °F 62.6 °F 38% 30.03 in 10.0 mi South 4.6 mph - N/A   Clear
11:50 AM 96.8 °F 97.1 °F 60.8 °F 30% 30.02 in 10.0 mi Calm Calm - N/A   Clear
1:50 PM 98.6 °F 97.6 °F 57.2 °F 25% 29.98 in 10.0 mi Calm Calm - N/A   Clear
2:50 PM 100.4 °F 99.7 °F 57.2 °F 24% 29.95 in 10.0 mi East 6.9 mph - N/A   Clear
3:50 PM 100.4 °F 99.7 °F 57.2 °F 24% 29.92 in 10.0 mi Calm Calm - N/A   Clear
4:50 PM 100.4 °F 98.8 °F 55.4 °F 22% 29.91 in 10.0 mi Calm Calm - N/A   Clear
5:50 PM 100.4 °F 98.8 °F 55.4 °F 22% 29.89 in 10.0 mi NNE 6.9 mph - N/A   Clear
6:50 PM 98.6 °F 97.2 °F 55.4 °F 24% 29.89 in 10.0 mi ENE 8.1 mph - N/A   Clear
7:50 PM 96.8 °F 95.8 °F 57.2 °F 27% 29.89 in 10.0 mi East 4.6 mph - N/A   Clear
8:50 PM 93.2 °F 91.9 °F 57.2 °F 30% 29.90 in 10.0 mi Calm Calm - N/A   Clear
9:15 PM 91.4 °F 89.4 °F 55.4 °F 29% 29.90 in 10.0 mi ESE 3.5 mph - N/A   Clear
9:35 PM 91.4 °F 89.4 °F 55.4 °F 29% 29.90 in 7.0 mi SE 4.6 mph - N/A   Clear
9:55 PM 91.4 °F 89.4 °F 55.4 °F 29% 29.90 in 10.0 mi SE 5.8 mph - N/A   Clear
10:15 PM 89.6 °F 88.1 °F 57.2 °F 33% 29.91 in 10.0 mi ESE 4.6 mph - N/A   Clear
10:35 PM 89.6 °F 88.1 °F 57.2 °F 33% 29.91 in 10.0 mi SSE 3.5 mph - N/A   Clear
10:55 PM 87.8 °F 87.1 °F 59.0 °F 38% 29.90 in 10.0 mi SSE 4.6 mph - N/A   Clear
11:15 PM 87.8 °F 87.1 °F 59.0 °F 38% 29.90 in 10.0 mi SSE 3.5 mph - N/A   Clear
11:35 PM 87.8 °F 87.1 °F 59.0 °F 38% 29.90 in 10.0 mi South 4.6 mph - N/A   Clear
11:55 PM 87.8 °F 87.1 °F 59.0 °F 38% 29.90 in 10.0 mi South 4.6 mph - N/A   Clear